Temperature
20 20 20 19 19 19 21 21 22 23 23 22 22 21 20 19 19 18 18 18 19 19 19 19 19 19 19 19 19 19 20 20 20 20 20 20 20 20 19 19 19 19 19 19 19 19 19 19 19
20 20 20 19 19 20 21 21 22 23 23 22 21 21 20 19 19 18 18 18 19 19 19 19 19 19 19 19 19 19 19 19 20 20 20 20 20 20 19 19 19 19 19 19 19 19 19 19 19
20 20 20 18 19 20 21 22 22 24 24 23 20 19 19 19 19 18 18 18 18 19 19 19 19 19 19 19 19 19 19 19 19 19 19 19 19 19 19 19 19 19 19 19 19 19 19 19 19
21 21 20 19 20 21 21 22 22 23 23 22 20 19 18 18 19 18 18 18 18 18 18 18 18 18 18 18 18 19 19 19 19 19 19 19 19 19 19 19 19 19 19 19 19 19 19 19 19
21 21 19 20 20 21 21 22 23 23 23 21 20 18 18 18 18 18 18 18 18 18 18 18 18 18 18 18 18 18 18 18 18 18 19 19 19 19 19 19 19 19 19 19 19 19 19 19 19
22 20 20 20 21 21 21 22 23 22 22 21 20 18 18 18 19 19 19 18 18 18 18 18 18 18 17 17 17 17 18 18 18 18 18 18 18 18 18 19 19 19 19 19 19 19 19 19 19
21 19 20 21 20 21 22 23 22 22 22 21 20 18 18 18 19 19 19 18 18 18 18 17 17 17 17 17 17 17 17 17 17 17 17 18 18 18 18 18 18 18 18 18 18 19 19 19 19
23 19 20 20 21 21 23 23 23 22 22 21 21 19 18 19 19 19 18 18 18 18 17 17 17 17 17 16 16 16 16 16 16 17 17 17 17 17 17 18 18 18 18 18 18 18 19 19 19
22 19 20 20 21 21 23 23 23 22 22 21 21 20 20 19 19 18 18 18 18 17 17 17 17 17 16 16 16 16 16 16 16 16 16 16 16 17 17 17 17 17 18 18 18 18 18 18 18
21 19 20 21 21 21 23 23 22 21 20 20 20 20 20 19 19 19 18 18 18 18 17 17 17 16 16 16 16 15 15 15 15 15 16 16 16 16 16 17 17 17 17 17 18 18 18 18 18
20 19 20 21 22 23 23 23 22 21 19 20 20 20 19 19 19 19 19 18 18 17 17 17 16 16 16 15 15 15 15 15 15 15 15 15 15 16 16 16 16 17 17 17 17 18 18 18 18
20 20 21 22 23 24 23 23 22 21 21 21 21 20 20 20 19 19 19 18 18 17 17 16 16 15 15 15 15 15 15 15 15 15 15 15 15 15 15 16 16 16 16 16 17 17 17 17 18
20 20 21 22 23 23 23 22 22 21 21 21 21 20 20 20 19 19 19 18 18 17 17 16 16 15 15 15 14 14 14 14 14 14 14 14 15 15 15 15 15 16 16 16 16 17 17 17 17
20 20 21 22 22 23 22 21 21 21 21 21 21 20 20 20 20 19 19 18 18 17 16 16 15 15 15 14 14 14 14 14 14 14 14 14 14 14 15 15 15 15 15 16 16 16 16 17 17
21 20 20 21 21 22 22 21 20 21 21 21 21 21 20 20 20 19 19 18 18 17 16 16 15 15 15 14 14 14 14 14 14 14 14 14 14 14 14 14 15 15 15 15 15 16 16 16 17
20 20 19 20 21 21 21 20 21 22 22 21 21 21 20 20 19 19 18 18 17 17 16 16 15 15 14 14 14 14 14 13 13 13 14 14 14 14 14 14 14 15 15 15 15 15 16 16 16
19 19 20 20 21 21 20 20 20 21 21 21 21 21 20 20 19 19 18 18 17 17 16 16 15 15 14 14 14 14 13 13 13 13 13 13 13 14 14 14 14 14 14 15 15 15 15 16 16
20 20 20 20 21 21 20 20 20 21 21 21 21 21 20 20 19 19 18 18 17 17 16 16 15 14 14 14 14 14 13 13 13 13 13 13 13 13 13 14 14 14 14 14 14 15 15 15 15
21 21 21 21 22 21 20 20 20 20 21 21 21 21 20 20 19 18 18 17 17 16 16 15 15 14 14 14 14 13 13 13 13 13 13 13 13 13 13 13 13 13 14 14 14 14 15 15 15
21 21 21 22 23 22 21 21 20 20 20 21 21 21 20 19 19 18 18 17 17 16 16 15 15 14 14 13 13 13 13 13 12 12 12 13 13 13 13 13 13 13 13 13 14 14 14 14 15
21 21 22 22 22 22 22 20 20 20 21 21 21 21 20 20 19 18 18 17 17 16 16 15 14 14 14 13 13 13 13 13 13 13 12 12 12 12 12 12 13 13 13 13 13 14 14 14 14
21 22 23 22 21 19 21 19 19 19 19 20 20 20 20 19 19 18 18 17 17 16 16 15 14 14 13 13 13 13 12 12 12 12 12 12 12 12 12 12 12 13 13 13 13 13 13 14 14
21 23 23 22 21 19 19 18 18 19 19 19 19 20 20 20 19 19 18 18 17 16 16 15 14 14 13 13 13 12 12 12 12 12 12 12 12 12 12 12 12 12 12 13 13 13 13 13 13
22 21 20 17 17 18 19 18 19 17 19 19 19 20 20 20 19 19 18 17 17 16 16 15 14 14 13 13 13 13 12 12 12 12 12 12 12 12 12 12 12 12 12 12 12 13 13 13 13
20 18 18 18 17 18 19 19 18 19 19 19 19 20 20 20 19 19 18 17 17 16 16 15 15 14 14 13 13 13 12 12 12 12 12 12 12 12 12 12 12 12 12 12 12 12 12 13 13
21 18 18 18 18 18 20 19 18 20 20 21 21 21 20 20 19 19 18 18 17 16 16 15 15 14 14 13 13 13 13 12 12 12 12 12 11 11 11 12 12 12 12 12 12 12 12 12 13
21 19 18 17 18 18 18 19 20 20 19 19 20 20 20 20 19 19 18 18 17 16 16 15 15 15 14 14 13 13 13 12 12 12 12 12 11 11 11 11 12 12 12 12 12 12 12 12 12
21 19 16 17 18 18 19 18 17 19 19 19 19 19 20 20 19 19 18 18 17 17 16 16 15 15 14 14 14 13 13 13 12 12 12 12 11 11 11 11 11 11 12 12 12 12 12 12 12
22 21 17 15 16 16 18 18 18 18 18 18 19 20 20 20 20 19 18 18 17 17 16 16 15 15 15 14 14 13 13 13 13 12 12 12 12 11 11 11 11 11 11 11 12 12 12 12 12
21 20 17 18 18 16 16 17 19 18 19 20 20 21 21 20 20 19 19 18 17 17 16 16 16 15 15 15 14 14 13 13 13 13 12 12 12 11 11 11 11 11 11 11 11 12 12 12 12
Wind_Speed
13 9 3 2 1 2 0 2 1 2 4 5 9 10 9 6 5 5 1 4 8 8 9 10 10 9 9 8 7 6 6 5 5 4 4 4 4 3 3 3 2 2 2 2 2 2 3 3 3
9 5 2 2 2 1 1 2 1 3 6 7 8 8 8 6 4 4 2 6 9 8 9 9 9 8 7 6 6 5 5 4 4 4 3 3 3 3 3 3 2 1 1 1 1 1 1 1 2
7 4 2 2 1 3 2 2 1 5 7 6 6 6 5 3 3 2 3 7 8 7 8 8 8 7 6 5 4 4 4 4 4 4 4 4 4 4 4 3 3 3 2 2 2 1 1 1 1
4 1 2 2 1 2 2 2 2 4 6 6 7 6 4 4 2 3 5 8 8 6 7 8 8 7 6 4 4 3 4 4 5 5 5 5 6 6 5 5 5 5 4 4 3 3 3 2 2
1 2 3 2 1 2 2 1 3 6 4 5 6 6 3 2 5 6 6 7 8 5 5 6 7 6 5 4 2 2 3 4 5 6 6 7 7 7 7 7 7 7 6 6 5 5 4 4 4
2 3 3 1 1 1 2 1 5 8 7 6 7 5 2 3 5 6 7 6 6 6 5 5 5 4 3 2 1 2 3 4 5 6 7 8 9 9 8 9 8 8 8 8 7 6 6 6 6
3 3 1 3 2 1 2 2 5 6 6 4 5 6 4 3 5 6 6 6 5 4 4 3 2 1 1 2 2 3 4 5 6 7 8 8 8 9 10 10 10 10 10 10 9 8 8 8 7
4 4 1 1 3 4 3 4 5 6 5 3 4 7 5 5 6 5 5 4 3 3 2 1 1 1 3 4 5 5 6 7 7 8 8 8 8 9 10 10 10 11 12 11 11 10 10 9 9
3 4 1 3 4 4 3 5 3 5 6 4 3 5 7 8 8 6 4 3 2 2 2 2 2 3 3 3 4 6 6 7 8 7 8 7 6 7 8 9 10 11 12 12 11 11 11 10 10
4 2 3 4 4 4 3 5 7 5 6 4 4 4 7 8 8 7 6 4 3 2 2 2 2 2 3 3 4 6 6 7 7 7 8 7 7 8 8 8 9 9 9 10 10 11 11 10 7
3 4 3 4 3 3 3 3 5 9 4 6 8 8 8 8 8 7 6 6 5 3 3 2 2 2 2 2 3 4 5 6 6 7 8 7 6 7 7 6 6 7 7 6 6 7 6 6 5
3 3 4 3 3 2 4 5 5 5 8 10 11 10 8 9 9 8 7 6 5 4 3 2 2 2 2 3 3 3 3 4 4 6 6 4 3 3 3 3 5 5 4 4 4 4 5 5 6
3 3 3 3 2 2 4 5 6 5 8 10 10 10 10 9 8 7 8 7 6 5 3 2 2 3 2 2 3 3 3 4 5 5 5 5 3 3 3 3 3 4 4 4 3 4 4 4 4
4 2 1 3 1 2 4 3 7 7 10 10 10 10 10 10 9 8 7 7 6 5 4 2 3 3 2 2 3 3 4 5 5 4 6 5 4 3 3 3 3 3 4 5 4 4 4 4 3
4 3 2 3 1 0 4 1 6 10 11 10 10 10 9 8 9 9 8 8 7 5 4 3 4 3 3 3 4 3 4 5 4 4 6 6 4 3 2 3 3 3 5 4 4 4 3 4 4
3 3 2 4 3 2 4 6 8 10 11 10 10 9 8 7 8 8 8 7 7 6 4 2 4 3 3 3 3 3 5 5 4 5 6 7 6 5 2 2 3 3 3 2 3 3 3 3 3
2 2 4 4 6 5 5 7 6 9 10 10 9 8 8 7 7 7 8 7 7 7 5 4 3 3 3 3 3 4 4 4 5 6 5 6 7 6 3 3 3 3 2 2 3 2 2 3 3
5 4 4 6 6 7 6 8 6 9 10 9 8 7 7 8 8 8 7 7 7 6 6 5 3 3 3 3 3 4 5 4 4 4 5 7 7 7 4 3 3 3 2 2 2 2 2 2 3
7 4 4 5 7 8 9 8 9 10 9 8 6 6 7 7 7 7 7 7 7 5 5 4 4 3 3 2 2 3 4 4 4 4 6 7 7 7 4 3 3 3 2 3 3 2 2 2 1
4 3 2 2 5 7 7 6 7 10 11 10 9 9 9 8 7 7 6 6 6 5 5 5 4 3 2 1 1 1 2 2 3 4 5 7 7 7 4 3 3 3 2 3 2 1 1 2 1
3 5 5 5 2 2 2 5 1 5 5 6 7 8 10 12 11 8 7 7 6 6 5 5 4 3 2 1 2 3 3 3 4 5 5 5 7 6 5 4 3 3 2 2 3 1 1 2 2
4 6 6 4 2 3 2 1 4 4 5 6 6 7 9 10 10 9 8 8 7 6 6 6 4 3 1 1 2 1 1 2 3 3 4 6 6 6 5 4 4 3 2 2 3 2 1 2 2
8 6 4 2 3 2 1 4 6 3 6 7 7 8 9 10 11 10 9 9 8 7 6 5 4 2 1 0 1 0 1 2 3 3 5 5 5 5 5 4 4 4 3 3 3 3 2 2 2
5 4 7 6 5 2 5 6 5 6 8 7 7 8 9 9 9 9 8 8 6 5 5 5 4 3 2 1 1 1 1 2 3 4 5 5 4 4 6 5 4 4 3 3 3 3 3 2 3
6 6 5 5 4 5 3 4 7 6 7 8 9 9 9 9 9 9 9 8 7 7 6 5 5 4 3 2 2 2 2 2 2 3 4 4 4 4 6 5 4 4 4 4 3 3 3 3 3
5 9 7 4 4 5 2 3 5 3 5 7 8 9 9 9 9 10 10 9 8 8 7 6 5 4 4 3 3 2 2 2 2 3 3 4 3 4 5 5 5 5 5 4 3 3 3 3 3
6 4 7 6 2 2 3 2 4 0 3 4 6 7 9 9 9 9 9 8 8 8 8 7 6 5 4 4 3 2 3 2 3 4 3 3 4 4 5 6 5 6 5 4 3 2 3 3 3
6 8 6 4 2 2 3 3 5 8 8 6 7 8 8 8 8 8 8 8 7 8 7 6 6 6 5 4 3 2 2 3 3 2 4 4 5 5 6 6 6 6 5 4 3 3 4 3 3
3 3 5 4 5 5 3 6 7 11 10 9 9 9 9 9 9 8 8 7 7 6 6 5 5 5 4 4 3 2 2 2 2 2 3 3 4 4 5 5 5 5 5 4 3 4 4 4 4
6 6 7 4 3 4 4 7 5 9 9 9 8 8 8 9 8 8 8 7 6 6 6 6 6 6 6 5 4 3 2 2 2 3 3 3 4 4 4 5 5 5 5 4 4 4 4 4 4
Wind_Direction
183 165 116 86 41 36 44 274 259 9 49 57 73 79 81 58 74 116 264 134 134 145 156 152 148 144 142 140 138 135 134 132 132 133 131 132 132 129 126 124 110 98 89 83 72 69 59 54 45
165 149 130 74 84 101 266 250 94 79 128 119 75 69 73 69 68 87 60 122 131 138 146 148 147 145 144 148 152 154 158 160 164 167 168 170 166 167 167 164 165 164 150 137 104 91 74 49 25
164 168 133 89 142 185 217 256 152 82 91 97 79 54 65 62 67 85 125 133 123 122 130 137 138 140 145 150 162 176 186 190 196 201 201 202 200 194 189 192 200 214 219 220 219 204 226 248 306
150 120 70 86 193 248 209 223 124 100 71 65 100 74 59 33 78 118 126 129 123 120 125 129 133 138 143 153 169 185 200 208 216 219 218 221 221 216 208 210 218 223 225 223 222 220 238 248 261
112 102 70 69 283 306 301 356 93 85 77 79 95 93 87 64 104 114 113 121 124 125 126 131 128 135 142 151 171 203 220 229 235 235 229 228 228 224 221 223 224 226 225 225 224 225 234 241 250
77 75 85 147 252 325 314 84 89 86 100 109 99 105 121 158 132 133 123 121 128 134 136 139 140 146 156 169 193 241 261 259 259 254 244 239 236 231 229 229 228 228 227 226 225 227 234 239 246
132 98 136 178 179 248 213 137 110 108 94 93 115 112 151 192 174 148 136 132 130 130 127 131 120 82 277 246 256 264 279 279 275 271 267 257 248 242 239 236 234 234 232 230 230 229 233 237 243
143 99 63 190 179 219 192 132 123 115 98 73 97 131 171 201 171 136 121 109 104 99 96 100 76 1 332 316 301 291 292 289 283 283 284 278 267 258 250 245 242 241 237 233 233 233 235 237 241
87 79 195 209 197 215 170 119 92 68 85 59 76 143 168 160 140 123 106 81 79 88 78 79 63 39 6 322 318 315 305 299 298 292 289 293 287 277 268 258 251 249 244 238 235 238 239 239 241
84 112 245 235 203 185 157 136 130 99 92 89 91 110 137 137 130 131 132 129 121 111 97 74 69 40 20 357 336 324 316 306 296 287 283 280 273 269 265 264 262 255 250 246 241 240 242 242 238
110 151 238 273 246 172 143 125 114 127 142 170 161 157 147 136 135 140 141 138 141 139 112 90 81 56 32 355 334 328 323 315 305 288 279 274 274 274 275 273 274 270 262 252 248 241 234 227 224
122 195 200 239 266 155 147 131 104 153 180 175 164 154 145 141 148 151 146 144 138 123 124 108 81 53 19 11 342 330 323 312 304 296 289 271 270 277 277 267 262 256 250 239 239 238 229 226 227
168 192 226 254 301 111 104 123 132 157 156 153 148 142 150 154 156 155 148 142 135 132 147 138 81 61 27 13 331 340 319 308 303 306 298 273 261 275 276 267 263 256 248 237 235 237 234 231 235
180 184 354 315 301 80 105 137 131 180 166 155 152 160 170 166 158 151 144 142 147 149 150 133 104 81 55 22 340 328 329 329 338 333 320 305 277 275 283 278 266 258 252 242 233 234 239 237 234
129 112 350 293 285 168 102 252 208 182 172 166 170 179 185 172 158 157 158 157 159 153 140 136 127 76 54 25 356 356 346 350 349 346 347 346 334 306 293 290 283 270 267 255 244 239 233 238 243
102 105 221 246 193 211 136 242 239 176 173 179 187 192 188 177 166 163 159 158 151 136 126 98 93 80 51 27 360 351 353 352 345 345 345 347 347 347 334 313 295 284 277 257 254 242 236 238 242
96 187 230 255 205 193 184 234 232 182 176 187 198 197 187 175 164 165 161 156 141 130 126 109 100 84 55 28 5 354 352 347 340 344 344 343 344 345 341 315 301 308 290 267 272 256 234 240 249
198 208 221 223 203 188 212 238 217 195 184 191 195 194 187 179 176 168 159 147 133 127 118 113 95 73 56 27 7 358 353 345 342 343 341 343 343 343 342 321 318 325 314 294 284 270 254 239 245
178 187 228 230 194 183 220 234 212 200 190 189 186 178 179 176 169 157 149 138 124 111 104 101 89 64 53 31 10 355 343 336 342 341 350 348 344 340 338 333 330 332 317 293 282 264 268 262 220
163 171 222 254 199 187 223 247 214 192 192 188 178 168 158 149 148 148 143 136 129 121 112 104 102 95 73 51 309 285 304 309 315 327 345 351 349 343 345 343 331 330 330 327 312 270 257 256 202
167 169 186 211 267 295 188 341 227 196 185 188 175 162 154 158 159 159 152 147 136 129 132 126 128 120 96 52 21 6 4 349 347 342 338 333 345 349 344 341 339 338 339 320 311 288 236 250 238
191 202 188 188 128 281 141 241 269 202 181 184 169 149 155 159 159 160 156 154 153 158 149 139 142 139 128 85 55 31 3 329 301 303 313 324 338 345 347 344 344 341 338 321 308 324 257 234 246
192 207 185 146 131 342 359 153 279 178 188 202 190 175 170 167 166 167 166 165 167 167 157 152 153 163 190 173 132 64 318 289 298 314 329 333 330 333 337 336 341 337 324 312 309 314 296 239 227
154 67 44 48 67 324 235 158 236 214 200 193 197 189 180 173 168 166 165 159 167 172 164 160 165 199 229 250 258 185 258 298 321 324 327 326 319 319 326 326 325 322 317 305 297 294 295 272 255
85 82 34 1 5 262 240 156 231 232 193 176 180 186 183 175 168 167 166 170 177 182 183 179 182 213 240 251 253 229 237 260 282 293 302 312 315 313 315 323 316 312 304 297 289 286 288 278 268
154 133 151 194 227 281 340 201 245 244 180 163 166 174 177 179 179 178 182 183 185 188 189 189 196 214 228 233 246 244 249 252 270 282 286 295 295 292 304 317 318 314 311 309 301 292 283 277 269
131 147 166 144 203 257 295 339 328 337 169 172 178 176 182 187 187 185 187 186 188 190 196 199 199 209 219 226 231 250 268 262 277 292 298 302 304 308 322 326 327 326 324 317 314 302 297 294 276
140 143 99 121 160 275 299 230 222 212 213 207 199 199 201 194 188 186 186 188 192 197 202 201 198 202 213 216 222 226 255 265 277 298 316 315 318 323 327 331 333 334 334 331 328 314 307 311 298
150 136 115 125 157 158 224 259 223 197 198 199 206 203 196 190 188 190 193 195 193 194 196 199 203 203 211 210 211 219 254 262 280 299 300 305 312 320 328 330 334 337 339 340 339 325 324 325 314
175 177 146 153 213 171 183 261 262 189 192 188 197 199 194 189 186 188 190 191 194 200 204 202 205 207 214 210 206 217 231 242 272 282 287 300 309 315 321 327 335 338 341 340 336 324 327 318 314
Height
1535 1536 1536 1536 1537 1542 1543 1535 1528 1525 1524 1525 1524 1525 1529 1533 1537 1543 1540 1537 1538 1539 1539 1540 1541 1541 1541 1541 1541 1541 1541 1541 1542 1542 1542 1541 1541 1541 1541 1541 1541 1541 1541 1541 1541 1541 1540 1540 1540
1534 1535 1537 1537 1541 1550 1544 1532 1529 1524 1525 1526 1527 1529 1531 1535 1537 1538 1538 1538 1538 1539 1539 1540 1540 1540 1540 1540 1540 1540 1540 1540 1540 1540 1540 1540 1540 1540 1540 1540 1540 1540 1540 1540 1540 1540 1540 1540 1540
1534 1536 1536 1537 1542 1547 1540 1531 1527 1524 1525 1525 1529 1532 1534 1537 1538 1538 1538 1538 1538 1539 1539 1539 1539 1539 1539 1539 1539 1539 1539 1539 1539 1539 1539 1539 1539 1539 1539 1539 1539 1539 1539 1538 1538 1538 1538 1538 1539
1534 1536 1536 1540 1542 1538 1533 1529 1526 1526 1526 1527 1529 1534 1537 1539 1539 1538 1538 1538 1539 1539 1539 1539 1539 1538 1538 1538 1537 1537 1537 1537 1537 1537 1537 1537 1537 1537 1537 1537 1537 1537 1537 1537 1537 1537 1537 1537 1537
1534 1533 1538 1543 1540 1535 1531 1528 1527 1526 1528 1530 1530 1536 1539 1540 1539 1539 1539 1539 1539 1539 1539 1538 1538 1537 1537 1536 1536 1535 1535 1535 1535 1534 1534 1534 1535 1535 1535 1535 1535 1535 1535 1535 1535 1535 1535 1535 1536
1533 1533 1543 1547 1540 1534 1531 1528 1527 1528 1530 1532 1533 1536 1539 1540 1540 1540 1539 1539 1539 1539 1539 1538 1537 1536 1536 1535 1534 1533 1533 1532 1532 1532 1531 1532 1532 1532 1532 1532 1532 1532 1533 1533 1533 1533 1533 1534 1534
1533 1535 1540 1541 1540 1537 1531 1528 1528 1529 1530 1532 1533 1536 1539 1540 1540 1540 1540 1540 1539 1539 1538 1538 1537 1536 1534 1533 1532 1531 1530 1529 1529 1529 1528 1528 1529 1529 1529 1529 1529 1530 1530 1530 1531 1531 1531 1532 1532
1530 1534 1539 1539 1538 1535 1528 1528 1529 1529 1531 1533 1533 1535 1538 1539 1540 1540 1540 1540 1539 1539 1538 1537 1536 1535 1533 1532 1531 1529 1528 1527 1526 1526 1525 1525 1525 1525 1526 1526 1526 1527 1527 1528 1528 1529 1529 1530 1530
1531 1538 1542 1538 1536 1531 1528 1528 1530 1531 1531 1533 1534 1535 1536 1538 1539 1539 1540 1539 1539 1538 1537 1536 1535 1533 1532 1530 1529 1527 1526 1525 1524 1523 1522 1522 1521 1522 1522 1522 1523 1523 1524 1525 1525 1526 1527 1527 1528
1531 1540 1537 1531 1529 1528 1527 1527 1529 1532 1534 1535 1536 1536 1537 1538 1538 1539 1539 1538 1538 1537 1536 1535 1533 1532 1530 1528 1527 1525 1524 1522 1521 1521 1520 1519 1519 1519 1519 1519 1519 1520 1521 1521 1522 1523 1524 1525 1525
1529 1534 1532 1528 1526 1526 1527 1528 1528 1531 1534 1534 1534 1535 1536 1537 1538 1538 1538 1537 1537 1536 1535 1533 1532 1530 1528 1526 1524 1523 1522 1520 1519 1518 1517 1517 1516 1516 1515 1516 1516 1517 1517 1518 1519 1520 1521 1522 1523
1529 1529 1528 1527 1525 1525 1526 1527 1529 1529 1530 1531 1533 1534 1535 1536 1536 1537 1536 1536 1535 1534 1533 1532 1530 1528 1526 1524 1522 1521 1519 1518 1517 1516 1515 1514 1513 1513 1512 1512 1512 1513 1514 1515 1516 1517 1518 1519 1520
1527 1528 1527 1526 1525 1525 1525 1526 1527 1529 1530 1531 1532 1533 1534 1534 1535 1535 1535 1534 1534 1533 1531 1530 1528 1526 1524 1522 1520 1519 1517 1516 1515 1514 1513 1512 1511 1510 1510 1509 1509 1509 1510 1511 1512 1513 1515 1516 1517
1525 1526 1526 1526 1525 1525 1526 1527 1527 1529 1529 1530 1531 1532 1532 1532 1533 1533 1533 1533 1532 1531 1530 1529 1527 1525 1523 1521 1519 1517 1515 1514 1512 1511 1510 1509 1508 1508 1507 1507 1506 1506 1507 1507 1508 1509 1511 1512 1513
1523 1527 1527 1526 1525 1525 1527 1529 1526 1525 1528 1529 1530 1530 1530 1531 1531 1531 1531 1531 1531 1530 1529 1527 1526 1524 1522 1520 1518 1516 1514 1512 1511 1509 1508 1507 1506 1505 1505 1504 1504 1504 1504 1504 1505 1506 1507 1508 1509
1525 1530 1535 1527 1525 1525 1530 1533 1522 1524 1525 1527 1527 1528 1528 1529 1530 1530 1530 1530 1529 1528 1527 1526 1525 1523 1520 1518 1516 1514 1512 1510 1509 1508 1506 1505 1504 1503 1502 1502 1501 1501 1501 1501 1502 1502 1503 1504 1506
1530 1536 1535 1529 1524 1524 1527 1528 1520 1521 1523 1525 1525 1526 1526 1527 1528 1529 1529 1529 1528 1527 1526 1525 1523 1521 1519 1517 1515 1513 1511 1509 1507 1506 1504 1503 1502 1501 1500 1499 1499 1498 1498 1498 1498 1499 1500 1501 1502
1533 1533 1531 1528 1521 1522 1525 1523 1519 1520 1521 1522 1523 1524 1525 1525 1527 1528 1528 1528 1527 1526 1525 1524 1522 1520 1518 1516 1514 1512 1510 1508 1506 1505 1503 1501 1500 1498 1497 1496 1496 1496 1495 1495 1495 1496 1497 1498 1499
1519 1524 1527 1521 1515 1519 1521 1520 1518 1518 1520 1521 1521 1522 1523 1524 1526 1527 1527 1527 1526 1525 1524 1522 1521 1519 1517 1515 1513 1511 1509 1507 1505 1504 1502 1500 1498 1496 1495 1494 1494 1493 1493 1493 1493 1493 1494 1495 1496
1516 1522 1523 1517 1512 1516 1519 1518 1514 1515 1516 1518 1519 1520 1520 1522 1524 1526 1526 1526 1525 1524 1523 1521 1520 1518 1516 1514 1512 1510 1508 1506 1505 1503 1501 1499 1497 1495 1494 1493 1492 1491 1491 1491 1491 1491 1492 1492 1494
1516 1520 1520 1519 1514 1514 1517 1524 1518 1515 1516 1518 1518 1518 1519 1520 1522 1524 1524 1524 1524 1523 1522 1520 1519 1517 1515 1513 1512 1510 1508 1506 1504 1502 1500 1498 1496 1494 1492 1491 1490 1489 1489 1489 1489 1489 1490 1490 1491
1518 1510 1511 1514 1523 1529 1522 1539 1524 1518 1517 1517 1517 1517 1518 1519 1521 1522 1523 1523 1522 1522 1521 1519 1518 1517 1515 1513 1511 1509 1507 1505 1503 1501 1499 1497 1495 1493 1491 1490 1489 1488 1487 1487 1487 1487 1488 1488 1489
1510 1505 1508 1512 1520 1528 1527 1536 1532 1519 1520 1517 1515 1516 1517 1518 1519 1520 1521 1521 1521 1520 1520 1519 1517 1516 1514 1513 1511 1509 1507 1505 1503 1500 1498 1496 1494 1492 1490 1489 1487 1486 1485 1485 1485 1485 1485 1486 1486
1503 1509 1514 1524 1530 1540 1528 1535 1531 1523 1516 1514 1514 1515 1516 1517 1518 1519 1519 1520 1519 1519 1519 1518 1517 1515 1514 1512 1510 1508 1506 1504 1502 1499 1497 1495 1493 1491 1489 1487 1486 1484 1483 1483 1482 1482 1482 1483 1483
1507 1524 1541 1542 1551 1543 1524 1528 1526 1511 1508 1509 1511 1513 1514 1515 1516 1517 1518 1518 1518 1518 1517 1517 1516 1514 1513 1511 1510 1508 1505 1503 1501 1499 1496 1494 1492 1490 1488 1486 1484 1483 1481 1481 1480 1480 1480 1480 1480
1509 1521 1542 1550 1550 1541 1523 1528 1520 1508 1507 1507 1509 1511 1512 1513 1514 1515 1516 1516 1516 1516 1516 1516 1515 1514 1512 1511 1509 1507 1505 1503 1501 1498 1496 1494 1491 1489 1487 1485 1483 1481 1480 1479 1479 1478 1478 1478 1478
1510 1518 1520 1535 1536 1540 1534 1524 1515 1509 1509 1509 1509 1510 1511 1511 1512 1513 1514 1515 1515 1515 1515 1514 1514 1513 1511 1510 1508 1506 1504 1502 1500 1498 1495 1493 1491 1488 1486 1484 1482 1480 1479 1478 1477 1476 1475 1475 1475
1502 1510 1525 1533 1542 1547 1535 1530 1528 1514 1511 1509 1509 1509 1509 1510 1511 1511 1512 1513 1513 1514 1513 1513 1512 1512 1510 1509 1507 1505 1503 1501 1499 1497 1494 1492 1490 1487 1485 1483 1481 1479 1477 1476 1475 1474 1473 1473 1472
1506 1509 1520 1533 1537 1546 1544 1534 1507 1506 1505 1506 1505 1505 1506 1507 1508 1510 1511 1512 1512 1512 1512 1512 1511 1510 1509 1508 1506 1505 1503 1501 1498 1496 1493 1491 1489 1486 1484 1482 1479 1477 1476 1474 1473 1472 1471 1470 1469
1501 1506 1517 1530 1531 1536 1541 1530 1498 1499 1500 1501 1502 1503 1504 1506 1507 1508 1509 1510 1510 1511 1510 1510 1510 1509 1508 1507 1505 1504 1502 1500 1497 1495 1493 1490 1488 1485 1483 1481 1478 1476 1474 1473 1471 1470 1469 1468 1467